Location: *
(43.0167°S, 179.9000°E)
Time: 19:36:44
(UTC+00:00)

Cosmos 2278 Rocket - Pass Details

Date: 12 August 2024
Orbit: 841 x 844 km, 71.0° (Epoch: 19 September)

Event Time Altitude Azimuth Distance (km) Brightness Sun altitude
Exits shadow 17:11:02 21° 318° (NW) 1,817 3.6 -19.8°
Maximum altitude 17:14:50 62° 243° (WSW) 958 2.2 -19.1°
Drops below altitude 10° 17:20:33 10° 161° (SSE) 2,501 4.8 -18.1°
Sets 17:23:03 0° 157° (SSE) 3,442 5.6 -17.6°
